Theta_e
356 356 350 352 351 351 350 350 350 349 345 343 342 343 344 345 345 351 350 350 353 353 354 354 351 345 347 345 345 344 343 344 345 343 342 344 344 342 345 346 345 347 348
358 357 349 349 350 350 351 350 350 350 348 344 343 343 343 346 346 350 352 352 353 354 354 352 352 351 351 350 350 345 344 348 349 349 351 350 346 344 347 348 345 347 348
358 358 354 348 349 349 349 350 350 349 349 345 343 344 343 344 345 351 352 352 350 353 347 346 344 349 350 352 352 346 348 349 348 345 348 348 348 348 349 344 340 347 347
360 359 358 349 349 348 349 349 350 350 349 346 344 344 345 345 344 347 355 353 353 353 349 345 345 347 348 351 351 349 346 346 348 344 349 347 347 348 351 350 347 348 347
359 358 356 349 349 349 350 350 351 350 349 347 345 346 346 346 346 352 349 350 353 350 347 347 348 350 349 350 351 346 344 345 344 347 347 347 346 350 349 345 348 345 347
355 358 354 348 349 349 350 349 350 351 349 348 346 347 347 347 350 351 346 351 349 350 350 347 347 350 352 352 349 348 342 344 346 350 349 347 347 346 343 349 349 348 342
360 359 353 340 347 348 350 350 350 350 350 349 349 349 349 349 350 348 352 348 350 350 350 352 346 353 351 352 348 346 340 342 350 347 349 349 347 341 349 349 347 347 340
361 361 356 346 348 351 350 350 350 350 352 351 351 351 351 348 346 352 347 347 346 347 351 348 348 351 351 352 351 345 340 341 349 349 350 350 342 343 350 347 347 347 339
362 361 357 357 355 353 351 348 348 349 349 350 350 351 349 344 346 348 346 345 345 348 346 348 349 351 348 351 350 343 339 338 350 350 349 350 341 346 350 348 345 346 346
359 362 359 357 357 356 355 346 342 344 345 346 349 345 342 343 347 349 346 348 345 345 344 345 348 351 348 349 345 342 340 340 345 349 351 348 343 347 349 348 347 344 346
360 360 359 359 357 355 355 347 343 342 340 339 347 345 345 347 346 351 347 351 345 345 345 345 347 347 348 348 349 342 339 338 345 348 349 347 339 343 349 347 344 343 344
358 359 357 356 356 353 355 352 348 347 345 347 350 349 348 349 350 352 352 350 348 344 345 345 347 346 346 349 347 345 341 343 346 347 346 342 337 340 345 347 344 344 345
357 356 356 356 355 356 354 351 350 351 350 344 345 347 346 351 350 349 348 350 346 345 346 346 348 346 348 349 349 345 344 347 347 348 348 345 340 337 342 346 345 344 344
355 356 356 356 355 351 352 350 349 352 352 345 345 344 344 343 337 346 349 350 349 351 351 351 351 350 350 349 348 347 347 348 349 348 349 346 339 334 343 346 346 344 345
351 352 352 354 353 353 352 347 344 350 352 352 347 345 342 336 341 345 347 349 351 348 351 348 349 348 349 348 347 348 348 348 347 349 347 347 338 334 341 346 347 346 344
349 350 353 354 355 354 352 352 350 349 349 346 347 346 345 342 346 350 348 343 349 347 346 347 348 350 348 348 347 348 350 349 348 350 348 349 345 339 344 344 344 343 345
351 352 354 355 355 355 353 353 349 347 346 348 347 347 346 344 343 347 345 346 346 347 345 346 349 348 347 348 347 348 349 349 350 349 349 347 345 342 340 345 344 341 341
352 352 354 354 354 355 355 353 351 348 347 347 343 343 347 346 346 348 346 346 346 347 344 345 346 347 347 350 349 348 348 348 350 349 349 348 349 344 342 340 340 342 342
354 353 354 354 355 355 354 352 349 347 346 346 345 345 346 346 346 346 348 347 344 346 349 345 342 346 349 348 346 346 347 348 347 350 349 348 348 348 347 339 339 342 343
353 354 355 354 354 355 353 351 349 348 347 346 343 343 345 343 343 346 347 346 344 342 347 347 344 340 346 347 345 346 346 347 351 348 348 348 349 346 349 347 344 341 341
353 355 356 355 354 352 351 349 347 347 346 346 345 343 345 343 344 344 346 345 344 345 344 345 344 343 347 347 347 346 345 345 349 349 346 346 346 348 345 345 344 340 342
356 356 356 355 354 351 349 347 346 347 346 344 344 341 338 343 343 345 344 347 346 344 345 343 345 343 345 345 347 344 347 348 349 349 349 348 345 346 346 344 343 342 343
357 357 356 354 352 351 349 347 347 346 343 342 340 339 339 338 342 343 344 344 344 345 344 345 346 344 344 345 345 345 348 353 348 346 346 346 345 346 347 346 345 345 346
358 357 356 354 353 351 348 347 346 345 342 342 340 339 339 341 342 342 343 343 345 346 344 347 346 344 343 345 343 344 346 346 350 351 343 345 345 345 346 347 345 345 345
355 356 355 353 354 352 351 345 345 341 339 340 339 340 343 342 341 343 342 342 345 347 344 344 346 346 342 341 343 343 345 346 343 345 349 346 345 344 345 346 346 345 345
351 352 356 353 352 350 347 346 344 343 343 344 343 344 343 343 343 342 342 344 345 345 345 343 345 346 342 343 343 343 344 343 342 344 346 347 346 346 346 345 346 345 345
Wind_Speed
25 23 19 17 20 20 17 14 13 13 13 12 11 11 13 13 14 13 14 15 11 11 10 9 9 7 5 5 6 9 11 13 16 18 17 17 17 18 19 20 16 16 16
29 23 19 19 19 18 16 14 12 11 12 13 12 11 12 12 12 11 12 12 11 10 10 9 9 7 5 6 9 11 12 16 18 18 17 16 16 14 11 11 16 16 16
24 22 19 19 18 17 14 11 11 12 13 14 13 11 10 11 11 9 11 9 10 7 8 9 8 8 6 7 10 10 13 17 18 18 18 15 14 13 13 15 15 16 16
23 21 18 20 18 16 14 12 12 12 12 14 13 12 12 10 9 10 8 7 7 5 6 7 8 7 7 8 10 9 13 16 16 15 17 15 13 12 14 14 16 16 16
25 21 19 20 18 16 14 12 12 13 14 14 13 11 11 11 9 9 9 5 5 4 5 7 7 7 7 8 10 10 14 15 17 13 10 18 14 12 13 13 14 16 16
25 25 18 18 18 16 15 14 13 14 15 13 13 12 11 10 9 8 7 6 4 4 4 7 8 9 9 9 10 9 13 15 14 8 14 14 17 14 13 15 15 15 15
32 26 20 16 18 15 15 14 14 14 15 14 14 13 11 10 9 8 8 5 4 4 5 6 7 9 9 10 10 12 16 14 9 16 18 14 13 15 14 14 14 16 15
26 22 20 17 16 13 14 14 14 14 15 15 14 13 12 10 10 9 8 7 5 5 5 5 7 8 9 11 11 13 16 16 11 13 13 13 16 17 15 14 14 14 15
24 23 19 17 15 13 14 14 14 15 15 16 15 13 13 10 9 10 9 7 6 7 6 6 7 9 9 9 11 13 17 15 9 12 16 16 16 17 15 14 14 14 14
20 20 20 16 14 12 13 14 15 15 16 17 17 14 13 12 12 10 8 9 7 7 7 8 8 10 10 10 12 14 16 14 10 8 15 15 18 16 16 16 15 14 13
17 15 17 15 15 15 15 17 17 16 16 15 15 15 14 12 11 11 10 9 8 9 9 9 10 10 11 11 12 13 14 15 8 5 20 14 16 17 16 15 15 14 15
9 11 15 14 14 15 17 19 19 19 20 19 19 16 13 11 11 9 9 9 11 9 10 10 10 11 11 11 13 13 15 11 12 4 15 17 15 16 16 16 14 16 14
13 16 15 16 16 17 12 15 18 18 20 22 21 19 15 9 7 9 8 11 11 10 11 12 13 14 12 15 15 15 15 15 10 10 14 16 15 16 16 16 16 15 15
19 16 15 14 14 10 12 10 12 20 21 25 25 19 19 16 11 10 12 10 8 12 12 13 12 11 13 14 16 16 17 15 14 14 14 16 15 16 16 16 15 16 16
15 15 15 12 9 8 13 16 32 23 24 23 22 21 17 11 10 12 14 10 10 13 11 14 13 12 12 12 15 16 19 17 21 13 16 15 16 17 17 17 16 16 16
15 14 13 12 10 8 8 11 16 21 22 10 16 15 20 19 12 11 14 15 10 10 12 12 11 11 11 11 10 11 12 13 13 14 16 13 15 17 18 16 16 16 16
18 17 16 15 13 11 10 8 9 11 10 10 23 9 14 16 18 16 13 15 11 11 11 13 10 10 11 8 12 11 12 13 12 15 12 16 15 18 19 18 16 15 16
19 20 18 15 15 13 12 11 9 11 11 11 13 15 19 16 14 16 16 14 15 12 12 16 14 11 12 10 9 11 13 13 13 12 14 11 16 18 20 20 17 17 19
14 18 17 15 18 17 13 11 11 11 13 13 11 21 19 19 18 19 17 18 17 15 12 16 17 13 12 11 11 11 9 11 13 11 14 10 13 15 16 18 16 16 19
15 13 11 10 12 13 11 13 12 13 13 14 14 15 21 22 22 22 20 19 19 20 15 16 15 14 11 14 13 9 12 13 11 15 15 10 10 12 16 18 18 17 21
19 15 12 12 13 13 13 14 14 14 15 16 16 9 18 18 20 22 22 19 16 19 21 16 16 16 12 11 9 8 10 10 12 13 15 15 14 13 15 18 13 17 19
19 14 11 11 12 13 11 13 13 12 14 16 17 21 21 15 20 20 24 21 19 19 18 20 19 18 14 11 6 2 2 7 17 15 15 13 12 15 13 17 18 26 29
18 14 12 11 11 11 10 9 10 13 15 16 19 21 18 23 20 21 23 25 22 20 21 20 19 20 17 13 14 6 2 3 1 8 14 15 13 14 15 15 16 21 23
10 10 11 8 7 6 5 6 7 12 14 16 16 17 17 19 21 21 22 24 23 21 24 21 22 22 15 15 15 17 12 3 1 1 2 9 10 11 12 15 14 15 16
10 14 13 10 5 3 1 5 5 8 14 16 17 16 15 17 19 21 22 25 24 24 25 25 23 22 24 24 15 9 17 11 10 5 0 3 8 9 13 14 13 10 12
12 15 12 9 5 2 2 5 6 9 14 13 14 10 13 16 17 20 21 23 25 25 24 25 25 24 24 24 13 15 11 7 4 5 2 4 7 9 15 16 15 12 13
Wind_Direction
137 145 147 147 141 142 142 145 144 147 141 138 133 125 120 117 117 117 110 110 111 124 122 131 131 128 121 111 124 118 129 125 126 126 120 114 113 112 112 110 108 104 104
136 143 148 149 143 144 150 155 159 163 156 152 145 138 130 125 122 124 129 115 113 123 123 130 131 134 124 111 127 130 133 131 131 128 123 121 118 116 116 113 125 114 112
132 142 145 148 147 148 150 156 168 172 168 164 154 146 136 131 125 130 130 128 120 122 129 135 135 135 129 126 130 140 143 139 138 137 124 118 127 113 113 127 120 117 119
133 137 141 148 152 150 146 153 163 168 175 171 163 155 144 141 136 140 141 132 129 138 146 146 153 153 146 140 136 150 150 147 144 142 142 131 131 130 124 124 122 126 128
134 139 149 151 155 148 139 144 157 166 173 174 166 159 152 150 147 146 151 152 157 163 164 160 171 170 164 155 150 161 157 151 146 151 149 144 134 139 139 133 131 129 128
138 139 148 154 158 149 143 140 153 164 171 177 171 165 162 157 157 158 154 160 181 168 171 164 179 172 172 170 167 168 160 162 154 153 139 136 147 149 142 138 141 138 139
113 132 142 155 163 160 153 152 155 165 174 174 173 173 168 168 171 164 168 176 170 198 179 175 172 166 179 176 178 173 175 171 168 166 148 154 152 145 148 149 148 144 143
120 124 131 145 156 168 169 166 162 165 172 173 179 176 176 181 178 177 171 182 182 198 185 191 179 177 184 186 186 185 184 185 173 163 149 159 154 152 152 154 152 152 144
124 125 133 140 153 170 172 171 173 174 180 180 181 185 182 187 185 185 193 199 189 198 184 192 187 182 186 192 189 194 188 200 195 184 169 161 160 157 158 161 159 158 152
125 130 130 149 156 167 169 175 176 180 180 185 190 192 185 182 188 203 202 209 203 202 190 192 201 185 185 194 191 192 198 209 215 183 155 174 162 161 163 163 165 165 165
122 128 140 157 167 172 178 180 178 181 184 188 187 195 198 193 197 205 205 222 211 202 195 193 196 195 185 190 193 196 205 219 234 193 178 175 169 167 167 171 172 174 169
149 139 152 162 175 187 187 188 180 180 184 188 191 201 195 199 199 202 217 217 223 199 195 190 200 189 193 190 197 200 209 205 223 201 171 164 176 173 173 180 180 177 177
156 156 171 176 185 200 198 186 183 191 195 196 199 199 198 204 198 184 216 219 220 211 198 197 198 193 200 195 198 199 201 229 224 186 179 181 187 180 180 187 188 185 183
164 170 176 184 196 209 190 183 215 193 204 204 205 214 215 226 231 211 210 217 211 218 199 199 199 197 221 213 194 199 207 223 219 212 193 184 189 187 186 192 195 190 192
148 153 161 164 192 196 169 174 213 213 202 215 206 214 214 226 250 231 221 201 221 219 209 209 207 205 211 209 209 218 207 225 214 213 214 206 193 195 192 196 201 200 198
151 156 165 178 192 196 185 175 196 212 209 226 237 211 222 234 244 222 224 217 222 228 219 202 205 205 207 220 226 222 208 215 220 225 206 209 212 205 199 202 206 209 206
160 166 166 177 187 197 199 213 221 242 242 178 208 228 229 234 227 238 229 222 212 231 224 210 199 210 209 212 223 218 214 203 220 227 214 214 208 210 203 206 213 214 215
163 165 170 184 191 199 209 213 220 235 252 246 242 229 223 238 241 231 228 224 213 220 219 212 196 200 206 210 208 219 225 217 221 223 210 195 212 205 207 210 216 220 219
167 166 176 184 181 197 211 215 227 232 244 253 256 212 220 226 240 233 229 226 218 208 224 221 202 196 217 226 224 225 236 225 220 224 228 221 211 197 210 211 216 233 235
174 170 183 194 197 199 212 218 231 237 238 244 250 246 219 227 230 227 230 225 220 212 212 220 217 212 210 227 227 228 229 218 228 231 233 231 222 215 202 204 207 225 233
166 176 188 202 208 206 215 221 234 239 239 244 242 245 231 231 227 225 225 228 221 206 209 216 213 216 223 207 205 224 235 237 229 243 238 241 233 219 208 214 217 219 240
160 169 193 216 217 222 231 239 244 255 248 254 272 260 254 228 226 221 224 224 218 215 211 213 208 210 225 219 209 206 249 245 241 236 244 245 243 227 220 217 229 225 218
142 167 202 223 233 238 247 253 257 267 268 261 261 261 258 246 235 222 222 223 217 215 209 209 204 205 210 221 216 210 210 224 201 238 242 244 242 219 224 220 215 207 214
161 172 199 197 213 234 262 262 259 273 278 281 276 266 256 247 235 225 219 223 220 213 210 209 207 209 204 230 221 237 257 191 186 259 223 242 244 229 211 214 208 204 202
163 140 145 149 137 99 302 293 290 290 282 289 289 266 251 237 232 221 218 219 221 215 216 206 204 207 201 218 208 205 240 229 222 252 137 259 236 223 208 201 208 207 200
129 121 129 115 118 106 33 3 358 317 304 304 305 268 247 236 227 220 214 212 215 215 212 210 204 212 211 218 207 233 246 236 240 239 245 199 212 205 209 205 206 195 200